User: anonymous   Login
Location: Freistadt
(48.5112°N, 14.5013°E)
Time: 19:46:30
(UTC+02:00)
Language:

CZ-6A DEB - Orbit

View from above orbital plane
View from above orbital plane
View from above satellite
View from above satellite

Ground track
Ground track

The orbit data is extracted from the following two-line orbital elements,

1 54639U 22151PR  24148.76782017  .00000184  00000-0  12221-3 0  9999
2 54639  98.8023 153.9858 0028218 294.1076  65.7145 14.12745077 79325
Epoch (UTC): 27 May 2024 18:25:39
Eccentricity: 0.0028218
inclination: 98.8023°
perigee height: 829 km
apogee height: 870 km
right ascension of ascending node: 153.9858°
argument of perigee: 294.1076°
revolutions per day: 14.12745077
mean anomaly at epoch: 65.7145°
orbit number at epoch: 7932

The dashed part of the orbit path shows where the satellite is in the earth's shadow,  

DLR